Rutland, VT

8:58 AM EDT on May 26, 2018 (GMT -0400)
Rutland State

Weather History for KRUT - September, 2013

Change the Weather History Date:

Monday, September 2, 2013

  Actual Average Record
Temperature  
Mean Temperature 71 °F -  
Max Temperature 79 °F - 90 °F (1953)
Min Temperature 63 °F - 35 °F (1967)
Degree Days  
Heating Degree Days 0    
Month to date heating degree days 0  
Since 1 July heating degree days 71  
Cooling Degree Days 6    
Month to date cooling degree days 15  
Year to date cooling degree days 425  
Growing Degree Days 21 (Base 50)    
Moisture  
Dew Point 66 °F    
Average Humidity 84    
Maximum Humidity 100    
Minimum Humidity 67    
Precipitation  
Precipitation 0.64 in - 1.40 in (1952)
Month to date precipitation 0.64  
Year to date precipitation 17.51  
Sea Level Pressure  
Sea Level Pressure 29.78 in    
Wind  
Wind Speed 4 mph (SSE)    
Max Wind Speed 9 mph    
Max Gust Speed 17 mph    
Visibility 10 miles    
Events Thunderstorm    
T = Trace of Precipitation, MM = Missing Value Source: NWS Daily Summary

Daily Weather History Graph

Daily Weather History Graph

Search for Another Location

Airport or City:

Astronomy

Sep. 02, 2013 Rise Set
Actual Time 6:16 AM EDT 7:24 PM EDT
Civil Twilight 5:47 AM EDT 7:54 PM EDT
Nautical Twilight 5:12 AM EDT 8:29 PM EDT
Astronomical Twilight 4:35 AM EDT 9:06 PM EDT
Moon 3:28 AM EDT (9/2) 5:39 PM EDT (9/2)
Length of Visible Light 14h 06m
Length of Day
13h 08m
Waning Crescent, 8% of the Moon is Illuminated
Sep 2
Waning Crescent
Sep 5
New
Sep 12
First Quarter
Sep 19
Full
Sep 26
Last Quarter

Hourly Weather History & Observations

Time (EDT) Temp. Dew Point Humidity Pressure Visibility Wind Dir Wind Speed Gust Speed Precip Events Conditions
12:15 AM 71.6 °F 66.2 °F 83% 29.85 in 10.0 mi SSE 9.2 mph - N/A   Overcast
12:35 AM 71.6 °F 66.2 °F 83% 29.84 in 10.0 mi SSE 6.9 mph - N/A   Overcast
12:55 AM 71.6 °F 66.2 °F 83% 29.84 in 10.0 mi South 9.2 mph - N/A   Overcast
1:15 AM 71.6 °F 66.2 °F 83% 29.84 in 10.0 mi SSE 5.8 mph - N/A   Mostly Cloudy
1:35 AM 71.6 °F 66.2 °F 83% 29.84 in 10.0 mi SSE 8.1 mph - N/A   Mostly Cloudy
1:55 AM 71.6 °F 66.2 °F 83% 29.83 in 10.0 mi SSE 4.6 mph - N/A   Overcast
2:15 AM 69.8 °F 66.2 °F 88% 29.82 in 10.0 mi South 4.6 mph - N/A   Mostly Cloudy
2:35 AM 71.6 °F 66.2 °F 83% 29.82 in 10.0 mi SSE 6.9 mph - N/A   Overcast
2:55 AM 71.6 °F 66.2 °F 83% 29.82 in 10.0 mi SE 5.8 mph - N/A Thunderstorm Overcast
3:15 AM 69.8 °F 66.2 °F 88% 29.82 in 8.0 mi SSW 4.6 mph - 0.01 in Thunderstorm Thunderstorm
3:35 AM 69.8 °F 68.0 °F 94% 29.80 in 6.0 mi ESE 8.1 mph - 0.07 in Thunderstorm Mostly Cloudy
3:55 AM 69.8 °F 66.2 °F 88% 29.79 in 7.0 mi SSW 5.8 mph - 0.08 in Thunderstorm Overcast
4:15 AM 69.8 °F 66.2 °F 88% 29.79 in 10.0 mi SSW 8.1 mph - 0.01 in   Scattered Clouds
4:35 AM 69.8 °F 66.2 °F 88% 29.80 in 10.0 mi SW 4.6 mph - 0.01 in   Partly Cloudy
4:55 AM 69.8 °F 66.2 °F 88% 29.81 in 8.0 mi South 5.8 mph - 0.01 in Thunderstorm Mostly Cloudy
5:15 AM 69.8 °F 66.2 °F 88% 29.82 in 7.0 mi SSW 3.5 mph - 0.05 in   Overcast
5:35 AM 69.8 °F 66.2 °F 88% 29.83 in 7.0 mi Calm Calm - 0.13 in Thunderstorm Mostly Cloudy
5:56 AM 68.0 °F 66.2 °F 94% 29.81 in 8.0 mi South 5.8 mph - N/A   Mostly Cloudy
6:15 AM 68.0 °F 66.2 °F 94% 29.81 in 9.0 mi West 3.5 mph - N/A   Mostly Cloudy
6:35 AM 68.0 °F 66.2 °F 94% 29.82 in 0.8 mi South 4.6 mph - N/A   Overcast
6:55 AM 68.0 °F 66.2 °F 94% 29.80 in 7.0 mi SE 3.5 mph - N/A   Mostly Cloudy
7:15 AM 68.0 °F 66.2 °F 94% 29.80 in 10.0 mi SSE 4.6 mph - N/A   Clear
7:35 AM 68.0 °F 66.2 °F 94% 29.81 in 10.0 mi South 5.8 mph - N/A   Scattered Clouds
7:55 AM 68.0 °F 66.2 °F 94% 29.81 in 9.0 mi South 4.6 mph - N/A   Scattered Clouds
8:15 AM 68.0 °F 66.2 °F 94% 29.81 in 10.0 mi South 5.8 mph - N/A   Scattered Clouds
8:35 AM 68.0 °F 66.2 °F 94% 29.79 in 10.0 mi SE 12.7 mph - 0.03 in   Mostly Cloudy
8:55 AM 68.0 °F 66.2 °F 94% 29.79 in 10.0 mi SSE 9.2 mph - 0.10 in   Overcast
9:15 AM 69.8 °F 66.2 °F 88% 29.79 in 10.0 mi SW 9.2 mph - N/A   Overcast
9:35 AM 68.0 °F 66.2 °F 94% 29.81 in 10.0 mi West 6.9 mph - N/A   Overcast
9:55 AM 69.8 °F 66.2 °F 88% 29.81 in 10.0 mi ENE 3.5 mph - N/A   Mostly Cloudy
10:15 AM 69.8 °F 66.2 °F 88% 29.81 in 10.0 mi East 4.6 mph - N/A   Scattered Clouds
10:35 AM 71.6 °F 66.2 °F 83% 29.81 in 10.0 mi ENE 4.6 mph - N/A   Clear
10:55 AM 71.6 °F 66.2 °F 83% 29.81 in 10.0 mi Calm Calm - N/A   Clear
11:15 AM 73.4 °F 66.2 °F 78% 29.81 in 10.0 mi West 4.6 mph - N/A   Clear
11:35 AM 73.4 °F 66.2 °F 78% 29.80 in 10.0 mi Calm Calm - N/A   Clear
11:55 AM 73.4 °F 66.2 °F 78% 29.80 in 10.0 mi Calm Calm - N/A   Clear
12:15 PM 75.2 °F 66.2 °F 73% 29.79 in 10.0 mi Calm Calm - N/A   Clear
12:35 PM 75.2 °F 66.2 °F 73% 29.78 in 10.0 mi Calm Calm - N/A   Clear
12:55 PM 75.2 °F 66.2 °F 73% 29.78 in 10.0 mi Calm Calm - N/A   Clear
1:15 PM 75.2 °F 66.2 °F 73% 29.77 in 10.0 mi WSW 4.6 mph - N/A   Clear
1:35 PM 77.0 °F 66.2 °F 69% 29.77 in 10.0 mi South 5.8 mph - N/A   Clear
1:55 PM 77.0 °F 66.2 °F 69% 29.75 in 10.0 mi SSE 4.6 mph - N/A   Scattered Clouds
2:15 PM 78.8 °F 68.0 °F 69% 29.75 in 10.0 mi SE 4.6 mph - N/A   Partly Cloudy
2:35 PM 78.8 °F 66.2 °F 65% 29.74 in 10.0 mi SSW 4.6 mph - N/A   Partly Cloudy
2:55 PM 78.8 °F 68.0 °F 69% 29.75 in 10.0 mi NW 3.5 mph - N/A   Scattered Clouds
3:15 PM 78.8 °F 66.2 °F 65% 29.74 in 10.0 mi WNW 3.5 mph - N/A   Mostly Cloudy
3:35 PM 78.8 °F 66.2 °F 65% 29.74 in 10.0 mi Calm Calm - N/A   Overcast
3:55 PM 78.8 °F 68.0 °F 69% 29.73 in 10.0 mi NW 4.6 mph - N/A   Mostly Cloudy
4:15 PM 77.0 °F 68.0 °F 74% 29.73 in 10.0 mi NW 5.8 mph - N/A   Mostly Cloudy
4:35 PM 77.0 °F 68.0 °F 74% 29.72 in 10.0 mi WNW 4.6 mph - N/A   Scattered Clouds
4:55 PM 78.8 °F 66.2 °F 65% 29.71 in 10.0 mi NW 4.6 mph - N/A   Clear
5:15 PM 77.0 °F 66.2 °F 69% 29.71 in 10.0 mi North 3.5 mph - N/A   Mostly Cloudy
5:35 PM 77.0 °F 68.0 °F 74% 29.71 in 10.0 mi North 3.5 mph - N/A   Mostly Cloudy
5:55 PM 77.0 °F 68.0 °F 74% 29.70 in 10.0 mi East 3.5 mph - N/A   Partly Cloudy
6:15 PM 77.0 °F 66.2 °F 69% 29.70 in 10.0 mi SE 8.1 mph - N/A   Clear
6:35 PM 75.2 °F 66.2 °F 73% 29.71 in 10.0 mi SE 4.6 mph - N/A   Scattered Clouds
6:55 PM 73.4 °F 69.8 °F 88% 29.72 in 10.0 mi South 3.5 mph - N/A   Mostly Cloudy
7:15 PM 73.4 °F 69.8 °F 88% 29.73 in 10.0 mi Calm Calm - N/A   Mostly Cloudy
7:35 PM 73.4 °F 69.8 °F 88% 29.73 in 10.0 mi ESE 3.5 mph - N/A   Scattered Clouds
7:55 PM 71.6 °F 69.8 °F 94% 29.73 in 10.0 mi SE 6.9 mph - N/A   Mostly Cloudy
8:15 PM 71.6 °F 68.0 °F 88% 29.72 in 10.0 mi SE 8.1 mph - N/A   Overcast
8:35 PM 71.6 °F 68.0 °F 88% 29.72 in 10.0 mi SE 8.1 mph - N/A   Overcast
8:55 PM 71.6 °F 69.8 °F 94% 29.74 in 10.0 mi Calm Calm - N/A   Overcast
9:15 PM 71.6 °F 64.4 °F 78% 29.77 in 10.0 mi WNW 12.7 mph 17.3 mph N/A Thunderstorm Mostly Cloudy
9:35 PM 64.4 °F 62.6 °F 94% 29.79 in 6.0 mi ENE 8.1 mph - 0.26 in Thunderstorm Thunderstorm
9:55 PM 64.4 °F 62.6 °F 94% 29.78 in 8.0 mi SE 9.2 mph - 0.33 in Thunderstorm Thunderstorm
10:15 PM 64.4 °F 62.6 °F 94% 29.76 in 10.0 mi SE 11.5 mph - 0.09 in   Overcast
10:35 PM 64.4 °F 62.6 °F 94% 29.75 in 10.0 mi SSE 13.8 mph - 0.12 in   Mostly Cloudy
10:55 PM 64.4 °F 62.6 °F 94% 29.74 in 10.0 mi East 5.8 mph - 0.12 in   Partly Cloudy
11:15 PM 64.4 °F 62.6 °F 94% 29.73 in 10.0 mi South 3.5 mph - N/A   Clear
11:35 PM 64.4 °F 62.6 °F 94% 29.73 in 10.0 mi SW 4.6 mph - N/A   Clear
11:55 PM 62.6 °F 62.6 °F 100% 29.74 in 10.0 mi Calm Calm - N/A   Clear